This demonstration page uses our WeatherBlox Daily Observations layout. Learn more.

Hourly Observations for February 22, 2020

Temp ( °F °C ) Dew Point ( °F °C ) Humidity (%) Winds ( mph kmh ) Pressure ( in mb ) Visibility ( mi km ) Precip ( " mm )
12:54 am 00:54 Clear 30 -1.1 22 -5.6 72 72 S 5 7 30.22 1024 10 16.0934 0 0
1:54 am 01:54 Clear 30 -1.1 23 -5 75 75 SSE 5 7 30.21 1023 10 16.0934 0 0
2:54 am 02:54 Clear 28 -2.2 22 -5.6 78 78 SE 5 7 30.19 1022 10 16.0934 0 0
3:54 am 03:54 Clear 27 -2.8 21 -6.1 78 78 SSE 7 11 30.16 1021 10 16.0934 0 0
4:54 am 04:54 Clear 26 -3.3 21 -6.1 81 81 S 7 11 30.16 1021 10 16.0934 0 0
5:54 am 05:54 Clear 24 -4.4 20 -6.7 84 84 S 8 13 30.14 1021 10 16.0934 0 0
6:54 am 06:54 Clear 23 -5 19 -7.2 85 85 S 8 13 30.15 1021 10 16.0934 0 0
7:54 am 07:54 Sunny 28 -2.2 23 -5 81 81 S 9 15 30.15 1021 10 16.0934 0 0
8:54 am 08:54 Sunny 34 1.1 27 -2.8 76 76 SSW 8 13 30.15 1021 10 16.0934 0 0
9:54 am 09:54 Sunny 40 4.4 28 -2.2 63 63 S 12 19 30.11 1020 10 16.0934 0 0
10:54 am 10:54 Sunny 44 6.7 29 -1.7 55 55 SSW 13 20 30.1 1019 10 16.0934 0 0
11:54 am 11:54 Sunny 49 9.4 31 -0.6 50 50 SSW 15 24 30.07 1018 10 16.0934 0 0
12:54 pm 12:54 Sunny 52 11.1 32 0 47 47 SSW 13 20 30.04 1017 10 16.0934 0 0
1:54 pm 13:54 Sunny 56 13.3 32 0 40 40 S 18 30 29.99 1016 10 16.0934 0 0
2:54 pm 14:54 Sunny 57 13.9 32 0 39 39 SSW 15 24 29.98 1015 10 16.0934 0 0
3:54 pm 15:54 Sunny 58 14.4 32 0 38 38 SSW 17 28 29.97 1015 10 16.0934 0 0
4:54 pm 16:54 Sunny 57 13.9 32 0 39 39 SSW 15 24 29.97 1015 10 16.0934 0 0
5:54 pm 17:54 Sunny 53 11.7 32 0 45 45 SSW 10 17 29.98 1015 10 16.0934 0 0
6:54 pm 18:54 Clear 46 7.8 31 -0.6 56 56 SSE 6 9 30.01 1016 10 16.0934 0 0
7:54 pm 19:54 Clear 43 6.1 31 -0.6 63 63 SSE 5 7 30 1016 10 16.0934 0 0
8:54 pm 20:54 Clear 40 4.4 30 -1.1 68 68 SSE 3 6 29.99 1016 10 16.0934 0 0
9:54 pm 21:54 Clear 39 3.9 31 -0.6 73 73 E 5 7 30.01 1016 10 16.0934 0 0
10:54 pm 22:54 Clear 32 0 27 -2.8 82 82 N 7 11 30.01 1016 10 16.0934 0 0
11:54 pm 23:54 Clear 29 -1.7 25 -3.9 85 85 N 3 6 29.98 1015 10 16.0934 0 0

Powered by AerisWeather